Szeged, Hungary

7:16 AM CET on February 25, 2017 (GMT +0100)
Szeged

Weather History for LHUD - July, 2013

Change the Weather History Date:

Wednesday, July 10, 2013

  Actual Average (LRAR) Record (LRAR)
Temperature  
Mean Temperature 74 °F -  
Max Temperature 88 °F 81 °F 98 °F (2011)
Min Temperature 60 °F 58 °F 46 °F (1996)
Cooling Degree Days 9    
Growing Degree Days 24 (Base 50)    
Moisture  
Dew Point 62 °F    
Average Humidity 66    
Maximum Humidity 100    
Minimum Humidity 30    
Precipitation  
Precipitation 0.00 in 0.07 in - ()
Sea Level Pressure  
Sea Level Pressure 29.92 in    
Wind  
Wind Speed 3 mph ()    
Max Wind Speed 13 mph    
Max Gust Speed -    
Visibility 10.0 miles    
Events Fog    
Averages and records for this station are not official NWS values.
T = Trace of Precipitation, MM = Missing Value Source: Averaged Metar Reports

Daily Weather History Graph

Daily Weather History Graph

Search for Another Location

Airport or City:

Trip Planner

Search our weather history database for the weather conditions in past years. The results will help you decide how hot, cold, wet, or windy it might be!

Date:

Astronomy

Jul. 10, 2013 Rise Set
Actual Time 4:58 AM CEST 8:31 PM CEST
Civil Twilight 4:20 AM CEST 9:09 PM CEST
Nautical Twilight 3:29 AM CEST 9:59 PM CEST
Astronomical Twilight 2:23 AM CEST 11:05 PM CEST
Moon 7:11 AM CEST (7/10) 9:19 PM CEST (7/10)
Length of Visible Light 16h 48m
Length of Day
15h 33m
Waxing Crescent, 4% of the Moon is Illuminated
Jul 10
Waxing Crescent
Jul 16
First Quarter
Jul 22
Full
Jul 29
Last Quarter
Aug 6
New

Hourly Weather History & Observations

Time (CEST) Temp. Heat Index Dew Point Humidity Pressure Visibility Wind Dir Wind Speed Gust Speed Precip Events Conditions
12:45 AM 64.4 °F - 64.4 °F 100% 30.04 in - SSW 2.3 mph - N/A   Clear
1:45 AM 62.6 °F - 62.6 °F 100% 30.04 in - SW 2.3 mph - N/A   Clear
2:00 AM 63 °F - 63 °F 100% 30.02 in 9 mi SW 2.2 mph - -   Partly Cloudy
2:45 AM 62.6 °F - 62.6 °F 100% 30.01 in - WSW 1.2 mph - N/A   Clear
3:45 AM 60.8 °F - 60.8 °F 100% 30.01 in - West 2.3 mph - N/A   Clear
4:45 AM 60.8 °F - 60.8 °F 100% 29.98 in 3.1 mi Calm Calm - N/A Fog Fog
5:45 AM 62.6 °F - 60.8 °F 94% 29.98 in 3.1 mi SE 4.6 mph - N/A Fog Fog
6:15 AM 64.4 °F - 62.6 °F 94% 29.98 in 3.1 mi SSE 2.3 mph - N/A   Scattered Clouds
6:45 AM 66.2 °F - 66.2 °F 100% 29.98 in 3.1 mi Calm Calm - N/A   Scattered Clouds
7:15 AM 66.2 °F - 66.2 °F 100% 29.98 in 5.0 mi Calm Calm - N/A   Scattered Clouds
7:45 AM 69.8 °F - 64.4 °F 83% 29.98 in - Calm Calm - N/A   Clear
8:00 AM 70 °F - 65 °F 79% 29.97 in 7 mi Calm Calm - -   Partly Cloudy
8:15 AM 71.6 °F - 66.2 °F 83% 29.98 in - WNW 2.3 mph - N/A   Clear
8:45 AM 75.2 °F - 66.2 °F 73% 29.98 in - SSW 2.3 mph - N/A   Clear
9:15 AM 77.0 °F - 66.2 °F 69% 29.98 in - SW 1.2 mph - N/A   Clear
9:45 AM 77.0 °F - 64.4 °F 65% 29.98 in - WSW 2.3 mph - N/A   Clear
10:15 AM 80.6 °F 81.8 °F 62.6 °F 54% 29.98 in 6.2 mi Calm Calm - N/A   Partly Cloudy
10:45 AM 82.4 °F 82.5 °F 59.0 °F 45% 29.98 in - ENE 2.3 mph - N/A   Clear
11:15 AM 82.4 °F 82.9 °F 60.8 °F 48% 29.95 in - NNW 1.2 mph - N/A   Clear
11:45 AM 84.2 °F 85.0 °F 62.6 °F 48% 29.95 in - WSW 2.3 mph - N/A   Clear
12:15 PM 84.2 °F 83.5 °F 57.2 °F 40% 29.95 in - SE 3.5 mph - N/A   Clear
12:45 PM 86.0 °F 86.1 °F 60.8 °F 43% 29.92 in - South 3.5 mph - N/A   Clear
1:15 PM 84.2 °F 84.4 °F 60.8 °F 45% 29.92 in - SSW 4.6 mph - N/A   Clear
1:45 PM 86.0 °F 85.4 °F 59.0 °F 40% 29.92 in - WSW 4.6 mph - N/A   Clear
2:00 PM 85 °F - 58 °F 30% 29.89 in 22 mi WSW 4.5 mph - -   Partly Cloudy
2:15 PM 87.8 °F 87.1 °F 59.0 °F 38% 29.89 in - SSW 5.8 mph - N/A   Clear
2:45 PM 86.0 °F 85.4 °F 59.0 °F 40% 29.89 in - WSW 6.9 mph - N/A   Clear
3:15 PM 84.2 °F 85.6 °F 64.4 °F 51% 29.89 in - WNW 5.8 mph - N/A   Clear
3:45 PM 87.8 °F 87.6 °F 60.8 °F 40% 29.86 in - South 1.2 mph - N/A   Clear
4:15 PM 86.0 °F 86.6 °F 62.6 °F 45% 29.86 in - NNW 5.8 mph - N/A   Clear
4:45 PM 84.2 °F 85.0 °F 62.6 °F 48% 29.86 in - NNW 4.6 mph - N/A   Clear
5:15 PM 84.2 °F 85.0 °F 62.6 °F 48% 29.86 in - NNW 5.8 mph - N/A   Clear
5:45 PM 86.0 °F 86.1 °F 60.8 °F 43% 29.86 in - NNW 5.8 mph - N/A   Clear
6:00 PM 86 °F - 60 °F 31% 29.83 in 19 mi NNW 6.7 mph - -   Partly Cloudy
6:15 PM 84.2 °F 83.8 °F 59.0 °F 42% 29.86 in - North 6.9 mph - N/A   Clear
6:45 PM 82.4 °F 82.9 °F 60.8 °F 48% 29.83 in - NNW 4.6 mph - N/A   Clear
7:00 PM 83 °F - 62 °F 38% 29.82 in 19 mi NNW 4.5 mph - -   Partly Cloudy
7:15 PM 84.2 °F 83.0 °F 55.4 °F 37% 29.83 in - NE 6.9 mph - N/A   Clear
7:45 PM 75.2 °F - 62.6 °F 65% 29.86 in 6.2 mi ESE 12.7 mph - N/A   Partly Cloudy
8:00 PM 75 °F - 62 °F 55% 29.85 in 16 mi ESE 13.4 mph - -   Partly Cloudy
8:15 PM 69.8 °F - 62.6 °F 78% 29.86 in 6.2 mi SSE 11.5 mph - N/A   Partly Cloudy
8:45 PM 69.8 °F - 60.8 °F 73% 29.89 in - SSE 6.9 mph - N/A   Clear
9:00 PM 69 °F - 61 °F 70% 29.87 in 16 mi SSE 6.7 mph - -   Partly Cloudy
9:15 PM 68.0 °F - 60.8 °F 78% 29.89 in - South 6.9 mph - N/A   Clear
9:45 PM 66.2 °F - 60.8 °F 83% 29.89 in - South 3.5 mph - N/A   Clear
10:00 PM 67 °F - 60 °F 73% 29.87 in 19 mi South 4.5 mph - -   Partly Cloudy
10:45 PM 64.4 °F - 60.8 °F 88% 29.86 in - SW 3.5 mph - N/A   Clear
11:00 PM 64 °F - 62 °F 90% 29.85 in 19 mi SSE 6.7 mph - -   Partly Cloudy
11:45 PM 64.4 °F - 62.6 °F 94% 29.89 in - ENE 3.5 mph - N/A   Clear